When you browse on this site, cookies collect data to enhance your experience and personalize the content and advertising you see.
Visit our Privacy Policy to learn more. By continuing to use the site, you agree to this use of cookies and data.
  • En España
  • Lista de países
  • Para 7 días
  • Temperatura del agua
  • Mapa Satelital
  • El tiempo en el mapa
  • Informadores
  • user-avatar
    Iniciar sesión

    Tiempo cada hora Sen-Lui

    Hoy, 17 Diciembre, Lunes

    Tiempo Temperatura Precipitaciones Viento Presión Humedad
    00:00 +21°C° 0 mm 6 mps 739 mmHg 16%
    01:00 +21°C° 0 mm 7 mps 739 mmHg 17%
    02:00 +20°C° 0 mm 7 mps 739 mmHg 18%
    03:00 +18°C° 0 mm 7 mps 739 mmHg 19%
    04:00 +17°C° 0 mm 7 mps 739 mmHg 20%
    05:00 +17°C° 0 mm 7 mps 740 mmHg 21%
    06:00 +17°C° 0 mm 7 mps 740 mmHg 22%
    07:00 +16°C° 0 mm 7 mps 740 mmHg 23%
    08:00 +18°C° 0 mm 9 mps 740 mmHg 21%
    09:00 +21°C° 0 mm 10 mps 741 mmHg 19%
    10:00 +23°C° 0 mm 11 mps 741 mmHg 17%
    11:00 +24°C° 0 mm 11 mps 741 mmHg 16%
    12:00 +27°C° 0 mm 10 mps 740 mmHg 14%
    13:00 +28°C° 0 mm 10 mps 739 mmHg 13%
    14:00 +28°C° 0 mm 10 mps 739 mmHg 13%
    15:00 +28°C° 0 mm 9 mps 739 mmHg 13%
    16:00 +28°C° 0 mm 9 mps 738 mmHg 13%
    17:00 +26°C° 0 mm 8 mps 738 mmHg 15%
    18:00 +24°C° 0 mm 7 mps 739 mmHg 17%
    19:00 +22°C° 0 mm 6 mps 739 mmHg 19%
    20:00 +21°C° 0 mm 6 mps 739 mmHg 21%
    21:00 +21°C° 0 mm 6 mps 740 mmHg 22%
    22:00 +20°C° 0 mm 6 mps 740 mmHg 24%
    23:00 +18°C° 0 mm 7 mps 740 mmHg 25%

    Mañana, 18 Diciembre, Martes

    Tiempo Temperatura Precipitaciones Viento Presión Humedad
    00:00 +17°C° 0 mm 7 mps 740 mmHg 26%
    01:00 +17°C° 0 mm 7 mps 740 mmHg 27%
    02:00 +16°C° 0 mm 7 mps 740 mmHg 27%
    03:00 +16°C° 0 mm 7 mps 739 mmHg 27%
    04:00 +16°C° 0 mm 7 mps 739 mmHg 26%
    05:00 +15°C° 0 mm 7 mps 739 mmHg 26%
    06:00 +15°C° 0 mm 7 mps 740 mmHg 26%
    07:00 +15°C° 0 mm 7 mps 740 mmHg 26%
    08:00 +17°C° 0 mm 8 mps 740 mmHg 24%
    09:00 +19°C° 0 mm 9 mps 741 mmHg 21%
    10:00 +22°C° 0 mm 10 mps 741 mmHg 18%
    11:00 +24°C° 0 mm 9 mps 740 mmHg 16%
    12:00 +26°C° 0 mm 9 mps 740 mmHg 14%
    13:00 +27°C° 0 mm 8 mps 739 mmHg 13%
    14:00 +27°C° 0 mm 8 mps 739 mmHg 13%
    15:00 +27°C° 0 mm 8 mps 738 mmHg 12%
    16:00 +27°C° 0 mm 7 mps 738 mmHg 12%
    17:00 +24°C° 0 mm 6 mps 738 mmHg 14%
    18:00 +23°C° 0 mm 6 mps 739 mmHg 16%
    19:00 +21°C° 0 mm 5 mps 739 mmHg 17%
    20:00 +20°C° 0 mm 5 mps 739 mmHg 19%
    21:00 +19°C° 0 mm 5 mps 739 mmHg 21%
    22:00 +19°C° 0 mm 5 mps 740 mmHg 22%
    23:00 +17°C° 0 mm 5 mps 740 mmHg 24%

    Pasado mañana, 19 Diciembre, Miércoles

    Tiempo Temperatura Precipitaciones Viento Presión Humedad
    00:00 +16°C° 0 mm 6 mps 739 mmHg 26%
    01:00 +16°C° 0 mm 6 mps 739 mmHg 28%
    02:00 +16°C° 0 mm 6 mps 739 mmHg 29%
    03:00 +15°C° 0 mm 6 mps 739 mmHg 30%
    04:00 +15°C° 0 mm 6 mps 738 mmHg 31%
    05:00 +15°C° 0 mm 6 mps 739 mmHg 31%
    06:00 +15°C° 0 mm 7 mps 739 mmHg 32%
    07:00 +15°C° 0 mm 7 mps 740 mmHg 32%
    08:00 +17°C° 0 mm 8 mps 741 mmHg 28%
    09:00 +19°C° 0 mm 9 mps 741 mmHg 24%
    10:00 +22°C° 0 mm 10 mps 741 mmHg 20%
    11:00 +24°C° 0 mm 10 mps 741 mmHg 18%
    12:00 +26°C° 0 mm 10 mps 740 mmHg 17%
    13:00 +27°C° 0 mm 9 mps 739 mmHg 15%
    14:00 +27°C° 0 mm 9 mps 739 mmHg 15%
    15:00 +27°C° 0 mm 8 mps 738 mmHg 15%
    16:00 +27°C° 0 mm 8 mps 738 mmHg 15%
    17:00 +26°C° 0 mm 7 mps 738 mmHg 18%
    18:00 +23°C° 0 mm 6 mps 738 mmHg 21%
    19:00 +21°C° 0 mm 6 mps 739 mmHg 24%
    20:00 +21°C° 0 mm 6 mps 739 mmHg 25%
    21:00 +20°C° 0 mm 6 mps 739 mmHg 27%
    22:00 +19°C° 0 mm 6 mps 740 mmHg 29%
    23:00 +19°C° 0 mm 6 mps 739 mmHg 31%

    20 Diciembre, Jueves

    Tiempo Temperatura Precipitaciones Viento Presión Humedad
    00:00 +17°C° 0 mm 6 mps 739 mmHg 32%
    01:00 +17°C° 0 mm 6 mps 739 mmHg 33%
    02:00 +17°C° 0 mm 7 mps 739 mmHg 34%
    03:00 +16°C° 0 mm 7 mps 738 mmHg 34%
    04:00 +16°C° 0 mm 7 mps 738 mmHg 34%
    05:00 +16°C° 0 mm 7 mps 739 mmHg 35%
    06:00 +16°C° 0 mm 7 mps 739 mmHg 36%
    07:00 +16°C° 0 mm 7 mps 740 mmHg 37%
    08:00 +18°C° 0 mm 9 mps 740 mmHg 33%
    09:00 +21°C° 0 mm 10 mps 740 mmHg 29%
    10:00 +23°C° 0 mm 11 mps 741 mmHg 25%
    11:00 +24°C° 0 mm 10 mps 740 mmHg 23%
    12:00 +26°C° 0 mm 10 mps 739 mmHg 21%
    13:00 +27°C° 0 mm 9 mps 738 mmHg 19%
    14:00 +27°C° 0 mm 9 mps 738 mmHg 19%
    15:00 +27°C° 0 mm 8 mps 738 mmHg 18%
    16:00 +27°C° 0 mm 8 mps 737 mmHg 18%
    17:00 +26°C° 0 mm 7 mps 738 mmHg 21%
    18:00 +23°C° 0 mm 6 mps 738 mmHg 23%
    19:00 +22°C° 0 mm 5 mps 739 mmHg 25%
    20:00 +21°C° 0 mm 5 mps 739 mmHg 27%
    21:00 +20°C° 0 mm 6 mps 739 mmHg 28%
    22:00 +20°C° 0 mm 6 mps 740 mmHg 29%
    23:00 +19°C° 0 mm 6 mps 739 mmHg 30%

    21 Diciembre, Viernes

    Tiempo Temperatura Precipitaciones Viento Presión Humedad
    00:00 +19°C° 0 mm 6 mps 739 mmHg 31%
    01:00 +19°C° 0 mm 6 mps 738 mmHg 32%
    02:00 +17°C° 0 mm 6 mps 738 mmHg 33%
    03:00 +17°C° 0 mm 6 mps 738 mmHg 33%
    04:00 +17°C° 0 mm 6 mps 738 mmHg 34%
    05:00 +16°C° 0 mm 6 mps 738 mmHg 34%
    06:00 +16°C° 0 mm 6 mps 739 mmHg 34%
    07:00 +16°C° 0 mm 6 mps 739 mmHg 35%
    08:00 +18°C° 0 mm 7 mps 740 mmHg 30%
    09:00 +21°C° 0 mm 8 mps 740 mmHg 26%
    10:00 +23°C° 0 mm 9 mps 740 mmHg 22%
    11:00 +24°C° 0 mm 9 mps 740 mmHg 20%
    12:00 +26°C° 0 mm 8 mps 739 mmHg 18%
    13:00 +27°C° 0 mm 8 mps 738 mmHg 16%
    14:00 +27°C° 0 mm 7 mps 738 mmHg 15%
    15:00 +27°C° 0 mm 7 mps 737 mmHg 15%
    16:00 +27°C° 0 mm 7 mps 737 mmHg 14%
    17:00 +26°C° 0 mm 6 mps 737 mmHg 16%
    18:00 +23°C° 0 mm 5 mps 738 mmHg 17%
    19:00 +22°C° 0 mm 5 mps 738 mmHg 18%
    20:00 +21°C° 0 mm 5 mps 738 mmHg 19%
    21:00 +20°C° 0 mm 5 mps 739 mmHg 20%
    22:00 +20°C° 0 mm 5 mps 739 mmHg 21%
    23:00 +19°C° 0 mm 5 mps 738 mmHg 22%

    22 Diciembre, Sábado

    Tiempo Temperatura Precipitaciones Viento Presión Humedad
    00:00 +17°C° 0 mm 5 mps 738 mmHg 23%
    01:00 +17°C° 0 mm 5 mps 738 mmHg 24%
    02:00 +16°C° 0 mm 5 mps 738 mmHg 25%
    03:00 +16°C° 0 mm 5 mps 737 mmHg 25%
    04:00 +16°C° 0 mm 5 mps 737 mmHg 26%
    05:00 +16°C° 0 mm 6 mps 738 mmHg 26%
    06:00 +15°C° 0 mm 6 mps 738 mmHg 26%
    07:00 +15°C° 0 mm 6 mps 738 mmHg 26%
    08:00 +17°C° 0 mm 7 mps 739 mmHg 23%
    09:00 +20°C° 0 mm 8 mps 739 mmHg 20%
    10:00 +22°C° 0 mm 9 mps 739 mmHg 18%
    11:00 +24°C° 0 mm 8 mps 739 mmHg 16%
    12:00 +26°C° 0 mm 8 mps 738 mmHg 15%
    13:00 +27°C° 0 mm 8 mps 737 mmHg 13%
    14:00 +27°C° 0 mm 7 mps 737 mmHg 13%
    15:00 +27°C° 0 mm 7 mps 737 mmHg 13%
    16:00 +27°C° 0 mm 7 mps 737 mmHg 13%
    17:00 +26°C° 0 mm 6 mps 737 mmHg 14%
    18:00 +23°C° 0 mm 5 mps 737 mmHg 16%
    19:00 +22°C° 0 mm 5 mps 738 mmHg 17%
    20:00 +21°C° 0 mm 5 mps 738 mmHg 18%
    21:00 +21°C° 0 mm 5 mps 738 mmHg 19%
    22:00 +20°C° 0 mm 5 mps 739 mmHg 20%
    23:00 +20°C° 0 mm 6 mps 739 mmHg 21%
    Mostrar más